星链-4314 (STARLINK-4314 )

导读

STARLINK-4314是美国SpaceX公司星链星座中的一颗V1.5低轨通信卫星,于2022年7月11日发射入轨。作为星链网络的组成部分,它配备激光星间链路,可实现卫星间直接通信,提升全球网络覆盖效率,为全球用户提供高速宽带互联网服务,增强了星座在偏远地区和海洋的通信能力,助力构建全球低轨卫星通信系统。

基本信息
目录编号:
53056
目录名称:
STARLINK-4314
国际标识:
2022-077P
轨道中心:
EARTH
卫星名称:
星链-4314
卫星全名:
星链-4314 (STARLINK-4314 )
卫星状态:
在轨 (已飞行1437 天)
发射日期:
2022-07-11 UTC
国别 :
美国 (US)
星等 :
--
轨道信息
数据来源 国际轨道数据
星历时间: 2026-06-17T08:13:37+0800
11小时前
查看轨道信息
半长轴: 6927.655km
偏心率: 0.0002025
轨道倾角: 97.352°
近地点辐角 101.596°
升交点赤经 348.122°
平近点角 258.550°
近地点: 548.115km
远地点: 550.921km
周期: 95.640分钟
每日圈数: 15.056479
详细信息
固有亮度:
5
最大亮度:
2.5
卫星平台:
Starlink v1.5
覆盖范围:
全球
运营商:
太空探索技术公司
运营商所在国:
美国
制造商(研发单位):
太空探索技术公司
制造商所在国:
美国
使用方式:
暂无
卫星简介
星链(Starlink)计划是由太空探索技术公司(SpaceX)提出的一个巨型低轨卫星互联网星座项目,计划在2019年至2024年间在太空搭建由约1.2万颗卫星组成的“星链”网络,其中1584颗将部署在地球上空550千米处的近地轨道,并从2020年开始工作。该卫星仍在工作。
2D轨道图
3D轨道图
轨道高度分析图
轨道倾角分析图
轨道综合分析图
查看轨道综合分析图